Temp
13 12 13 12 13 13 12 12 12 13 13 13 13 13 13 13 13 13 12 13 12 10 8 7 7 8 10 11 12 12 12 11 11 10 10 9 9 9 10 10 10 9 9
13 13 13 13 11 12 12 12 13 13 13 13 13 12 12 12 12 12 13 12 12 10 7 7 7 8 9 11 12 12 12 11 11 11 11 11 10 10 10 9 9 9 9
13 13 13 13 12 12 12 13 12 13 13 13 13 12 12 12 12 12 12 12 12 11 8 7 7 7 9 12 12 12 12 11 11 11 11 11 10 10 10 10 9 9 9
13 13 13 12 11 12 12 13 13 13 13 12 12 12 12 12 12 12 12 11 11 9 9 9 8 8 9 12 13 12 12 12 11 11 11 11 10 10 10 9 9 9 9
13 13 13 12 12 12 11 12 12 12 12 12 12 12 12 12 12 12 11 11 11 11 8 11 10 10 10 12 12 12 12 12 11 11 11 10 10 10 9 9 9 9 9
13 13 13 12 12 11 11 12 12 12 12 12 12 12 11 12 12 11 11 11 11 11 11 10 10 10 11 11 12 12 12 12 11 11 11 10 10 10 9 9 9 9 9
13 13 12 12 12 12 12 11 12 11 11 11 12 11 11 11 11 11 11 11 10 11 11 10 10 10 11 11 11 12 12 12 11 11 11 10 10 10 9 9 9 9 9
13 13 13 13 12 12 11 11 11 11 11 12 12 12 10 10 10 11 10 10 10 10 10 10 10 10 11 11 12 12 12 12 12 11 11 11 10 10 9 9 9 9 9
13 13 12 12 12 13 12 11 10 11 11 11 12 12 10 10 10 10 11 11 10 10 10 10 10 10 11 11 11 12 12 12 12 11 11 10 10 10 10 9 9 9 9
13 12 13 13 13 12 11 11 11 11 12 11 11 11 13 12 11 10 10 11 11 11 10 10 10 10 10 11 12 12 12 12 11 11 11 10 10 10 10 9 9 9 9
12 13 13 12 12 11 11 11 11 11 11 12 12 11 12 12 13 13 10 12 11 11 11 11 10 10 10 11 12 12 12 11 11 11 11 10 10 10 10 9 9 9 9
12 12 13 12 12 11 11 12 10 11 11 11 12 12 13 12 13 12 13 13 13 12 12 12 11 11 11 11 12 12 12 12 12 11 11 10 10 10 10 10 9 9 9
12 12 12 12 11 12 11 11 11 11 11 11 11 12 13 13 12 12 12 12 13 13 13 13 12 12 12 12 12 12 12 12 11 11 11 11 10 10 10 10 9 9 9
12 13 12 12 12 11 11 11 11 11 11 11 12 12 13 13 12 12 12 11 12 12 13 13 14 13 13 13 13 12 12 12 12 11 11 11 11 11 10 10 9 9 9
12 12 12 12 12 12 11 12 11 11 11 12 12 13 14 13 13 12 12 12 11 13 12 14 14 14 14 13 13 13 13 13 12 12 12 12 12 11 10 10 10 9 9
11 12 12 12 11 12 11 11 11 10 10 11 12 13 13 12 13 12 12 12 11 12 13 13 14 14 14 14 14 13 13 13 12 12 12 12 12 11 11 11 10 9 9
11 12 12 11 11 11 12 11 11 10 11 11 12 12 12 12 12 12 12 11 11 11 11 12 13 13 13 13 14 14 13 13 13 13 12 12 12 11 11 11 10 10 9
10 10 10 11 11 11 11 11 11 10 10 10 11 12 12 12 11 11 11 11 11 12 11 12 12 13 13 13 13 13 13 13 13 13 13 12 12 11 11 11 10 10 9
8 10 10 11 11 11 11 11 11 11 11 11 10 11 12 11 11 11 11 11 11 12 13 13 12 12 13 13 13 13 13 13 13 14 13 13 12 12 11 11 11 10 10
7 9 9 9 10 11 10 10 10 11 11 11 11 11 10 10 10 10 11 10 11 11 12 13 12 12 13 13 13 13 13 13 13 13 13 13 12 12 12 11 11 11 10
5 7 8 9 10 9 9 11 11 10 11 11 10 11 10 10 10 10 10 10 10 10 11 14 13 13 13 13 13 14 13 13 13 13 13 13 13 12 12 12 11 11 11
5 6 7 8 10 11 8 10 12 10 10 11 11 11 11 11 11 11 11 11 10 10 10 13 13 14 14 14 14 14 14 12 12 14 13 13 13 13 12 12 12 11 11
3 5 5 6 8 8 9 9 11 10 10 11 11 11 11 11 11 11 11 11 10 11 12 13 14 14 14 14 14 14 13 13 13 13 13 12 13 12 12 12 12 11 11
-0 2 3 4 6 6 8 9 11 11 10 10 11 10 10 11 11 11 11 11 11 11 12 12 13 13 14 14 14 14 14 13 12 12 12 11 12 12 12 12 12 11 11
-1 1 2 3 4 5 6 8 9 10 10 10 12 11 11 10 10 11 11 11 11 12 13 13 13 13 13 14 14 13 12 12 12 13 13 12 12 12 12 12 12 11 11
-3 -2 -0 1 2 3 4 7 9 10 10 10 10 11 10 11 10 11 10 11 11 12 12 13 13 12 13 13 13 13 13 12 12 12 12 11 12 11 10 11 11 11 11
Height
1521 1521 1527 1530 1534 1540 1544 1549 1553 1556 1560 1562 1565 1568 1570 1571 1571 1572 1572 1573 1573 1575 1578 1579 1580 1581 1581 1583 1584 1586 1587 1589 1590 1591 1593 1594 1595 1595 1596 1597 1598 1599 1599
1520 1520 1525 1527 1532 1538 1543 1547 1552 1555 1559 1562 1565 1567 1569 1570 1571 1572 1572 1573 1574 1576 1578 1580 1581 1582 1583 1584 1586 1587 1588 1589 1591 1592 1593 1595 1596 1597 1597 1598 1599 1599 1600
1516 1516 1522 1524 1530 1537 1540 1546 1550 1555 1558 1561 1564 1567 1568 1569 1571 1572 1572 1573 1574 1576 1578 1580 1582 1584 1584 1585 1587 1588 1589 1590 1591 1592 1594 1595 1597 1598 1599 1599 1600 1601 1601
1513 1515 1517 1520 1527 1533 1538 1543 1548 1552 1556 1559 1562 1565 1567 1569 1570 1571 1572 1573 1575 1577 1578 1580 1582 1583 1584 1585 1587 1588 1590 1591 1592 1593 1594 1595 1597 1598 1599 1600 1601 1601 1602
1510 1513 1518 1516 1522 1526 1534 1540 1544 1548 1553 1557 1560 1563 1566 1568 1569 1571 1572 1573 1575 1576 1578 1579 1581 1582 1584 1586 1588 1589 1590 1591 1592 1593 1594 1595 1596 1598 1599 1600 1601 1602 1602
1507 1510 1508 1513 1517 1520 1527 1534 1537 1542 1550 1553 1557 1561 1564 1566 1567 1569 1571 1573 1574 1576 1577 1578 1580 1582 1583 1586 1587 1589 1590 1591 1592 1592 1593 1594 1596 1597 1599 1600 1601 1602 1602
1502 1506 1506 1504 1515 1515 1520 1529 1530 1535 1541 1549 1554 1558 1560 1564 1565 1567 1570 1572 1573 1574 1575 1577 1579 1581 1582 1584 1586 1587 1589 1590 1591 1592 1593 1594 1595 1597 1598 1599 1600 1601 1602
1497 1500 1502 1506 1508 1513 1515 1522 1524 1530 1535 1542 1547 1553 1557 1562 1563 1564 1567 1570 1571 1572 1573 1575 1576 1578 1580 1582 1584 1586 1587 1588 1590 1590 1592 1593 1594 1595 1597 1598 1599 1600 1601
1491 1493 1497 1498 1506 1508 1510 1514 1520 1523 1525 1535 1541 1545 1551 1554 1558 1561 1563 1566 1568 1569 1571 1572 1574 1575 1577 1579 1581 1583 1584 1586 1588 1589 1590 1592 1593 1594 1595 1596 1598 1598 1599
1486 1487 1490 1496 1499 1502 1505 1508 1515 1516 1517 1525 1535 1540 1545 1547 1553 1557 1559 1561 1564 1565 1567 1569 1570 1572 1574 1575 1577 1579 1581 1583 1585 1587 1588 1589 1591 1592 1593 1594 1595 1596 1597
1482 1485 1485 1489 1493 1498 1502 1506 1510 1510 1515 1522 1528 1534 1540 1544 1547 1550 1553 1556 1559 1560 1562 1564 1566 1568 1569 1571 1573 1576 1578 1580 1582 1584 1585 1586 1587 1588 1590 1591 1592 1593 1594
1477 1477 1481 1479 1487 1494 1497 1502 1506 1510 1514 1518 1526 1531 1536 1538 1541 1546 1550 1552 1554 1555 1557 1559 1561 1563 1564 1566 1569 1572 1574 1576 1578 1580 1582 1583 1584 1585 1587 1588 1589 1590 1591
1471 1474 1476 1478 1476 1483 1493 1497 1502 1506 1510 1516 1521 1526 1531 1536 1538 1543 1547 1550 1551 1551 1552 1553 1556 1558 1560 1562 1565 1568 1570 1572 1575 1576 1578 1580 1581 1582 1583 1584 1585 1586 1587
1466 1470 1473 1474 1475 1482 1486 1491 1496 1500 1506 1511 1516 1521 1524 1529 1534 1539 1542 1546 1549 1549 1549 1549 1550 1553 1555 1557 1560 1564 1566 1568 1571 1572 1574 1576 1578 1579 1580 1581 1582 1583 1584
1461 1463 1467 1470 1470 1471 1478 1484 1489 1494 1499 1504 1509 1514 1518 1523 1528 1534 1537 1540 1545 1547 1546 1546 1547 1549 1551 1554 1556 1558 1561 1564 1566 1568 1570 1572 1574 1575 1576 1577 1579 1579 1580
1455 1457 1461 1464 1466 1467 1464 1471 1480 1485 1490 1497 1501 1506 1510 1515 1519 1526 1530 1533 1538 1543 1543 1543 1544 1545 1548 1550 1552 1554 1556 1559 1562 1563 1566 1568 1569 1571 1572 1573 1574 1575 1576
1449 1451 1456 1458 1461 1462 1463 1460 1471 1478 1481 1488 1493 1498 1502 1506 1510 1516 1521 1524 1529 1535 1537 1540 1541 1542 1544 1546 1548 1549 1551 1554 1556 1558 1560 1562 1564 1566 1567 1569 1569 1570 1571
1444 1444 1451 1451 1455 1455 1457 1458 1464 1469 1474 1478 1484 1489 1493 1498 1502 1507 1512 1514 1517 1524 1529 1531 1536 1536 1539 1543 1543 1545 1547 1549 1552 1554 1555 1557 1558 1560 1562 1563 1564 1565 1565
1438 1439 1442 1444 1449 1451 1454 1450 1453 1461 1465 1469 1473 1478 1483 1489 1493 1498 1501 1505 1508 1516 1520 1524 1528 1529 1532 1536 1538 1540 1541 1544 1546 1547 1549 1550 1551 1553 1555 1557 1558 1558 1559
1431 1433 1435 1437 1440 1443 1451 1452 1446 1452 1457 1460 1464 1468 1474 1479 1483 1489 1491 1495 1501 1506 1511 1516 1520 1521 1524 1528 1531 1533 1536 1538 1539 1540 1542 1544 1545 1546 1547 1549 1551 1551 1552
1426 1425 1426 1430 1431 1439 1442 1443 1442 1445 1448 1451 1456 1459 1463 1467 1472 1477 1483 1485 1489 1496 1500 1505 1510 1513 1514 1518 1521 1526 1528 1532 1532 1533 1535 1536 1537 1539 1540 1541 1542 1544 1544
1421 1419 1419 1421 1426 1429 1431 1432 1433 1440 1439 1442 1447 1451 1453 1458 1463 1469 1474 1479 1481 1484 1491 1496 1501 1503 1507 1509 1514 1516 1519 1522 1523 1525 1527 1529 1530 1531 1532 1533 1534 1535 1537
1416 1414 1414 1415 1418 1419 1419 1417 1423 1430 1434 1432 1437 1442 1446 1449 1453 1456 1464 1469 1472 1478 1484 1488 1492 1495 1498 1501 1506 1508 1510 1512 1515 1517 1519 1520 1521 1523 1524 1525 1526 1527 1528
1416 1411 1410 1411 1412 1413 1411 1412 1416 1421 1423 1423 1429 1435 1437 1438 1442 1448 1451 1458 1463 1469 1473 1478 1481 1486 1490 1494 1496 1498 1501 1504 1505 1507 1510 1511 1512 1513 1514 1515 1517 1518 1519
1417 1411 1409 1409 1408 1408 1406 1405 1407 1412 1411 1414 1423 1427 1429 1427 1436 1440 1441 1448 1451 1454 1461 1466 1471 1476 1479 1484 1487 1489 1491 1492 1494 1497 1500 1500 1502 1503 1505 1507 1508 1510 1511
1421 1415 1411 1408 1405 1404 1402 1401 1401 1401 1404 1409 1414 1417 1420 1423 1425 1428 1432 1434 1436 1439 1446 1451 1458 1462 1467 1470 1473 1478 1481 1482 1484 1486 1489 1490 1493 1495 1496 1496 1498 1500 1502
Wind_Speed
28 32 35 36 33 37 39 37 32 28 25 23 19 15 12 9 6 6 7 7 12 13 15 15 14 14 15 14 13 12 12 12 12 12 12 12 11 12 12 11 11 11 11
30 31 35 33 35 41 41 37 33 29 27 24 20 16 11 8 6 5 7 8 10 14 15 14 13 13 13 13 12 13 13 12 12 11 11 10 10 11 11 10 10 9 9
31 37 36 34 36 42 43 38 33 29 28 25 20 17 12 8 7 6 7 9 11 13 15 14 13 13 12 11 12 12 12 12 11 11 10 9 9 9 9 9 8 8 8
33 39 40 34 40 42 44 39 34 30 30 29 24 19 15 10 9 6 6 9 11 12 13 14 14 13 11 11 11 11 11 12 11 10 10 9 8 8 8 7 7 6 6
36 40 38 42 37 41 43 40 39 34 34 31 26 21 17 12 9 6 6 8 10 12 12 10 11 10 10 9 9 10 10 11 11 10 9 9 8 7 7 6 6 5 5
38 38 33 45 46 42 46 46 45 39 38 31 27 23 19 15 11 8 7 9 10 11 12 11 10 10 8 8 9 10 10 11 10 10 9 8 8 7 6 6 5 5 4
39 37 34 39 45 41 46 51 42 44 42 33 30 26 21 17 15 11 11 10 10 12 13 12 11 10 10 9 9 10 10 11 11 10 9 8 7 7 6 6 5 5 4
41 37 40 37 43 43 43 52 44 42 46 43 37 32 22 19 19 17 15 14 12 13 14 12 12 12 12 11 11 11 11 12 11 11 10 9 8 7 7 6 6 6 5
33 34 34 31 35 35 39 50 52 51 52 45 38 28 15 10 22 21 20 18 18 16 16 15 14 13 13 14 14 14 13 12 12 12 11 10 8 8 7 7 7 7 7
35 43 43 30 32 35 33 43 47 42 57 49 42 37 28 21 13 11 24 25 23 22 20 19 18 16 15 15 16 15 14 14 13 13 12 11 10 9 9 9 9 8 8
36 35 40 35 34 36 32 39 50 47 47 46 48 39 28 24 17 12 10 21 30 27 25 23 22 20 18 17 18 16 16 15 14 14 12 12 11 10 11 10 10 10 10
30 41 39 47 35 35 37 33 33 38 34 42 40 43 39 33 28 21 14 13 14 22 28 25 24 23 22 20 19 17 17 16 15 15 14 13 12 11 11 11 10 10 11
31 33 45 41 40 41 40 35 37 40 44 42 44 43 41 37 30 24 21 13 13 13 15 24 25 23 23 22 20 18 18 17 17 16 15 15 14 12 12 11 11 11 12
33 31 31 41 40 44 46 44 42 43 45 45 49 47 42 41 38 33 28 18 16 16 16 17 22 24 23 23 20 18 19 18 17 17 16 15 15 14 14 13 12 12 12
28 33 33 37 49 50 48 47 43 46 49 51 53 49 44 43 40 38 37 34 20 17 12 14 19 17 20 22 20 20 21 19 19 18 17 15 14 15 15 15 13 14 14
22 29 29 33 38 47 53 52 50 48 49 49 51 49 47 44 42 39 39 39 37 25 19 11 7 14 17 17 19 22 22 20 20 20 19 17 17 16 16 16 15 15 16
21 24 30 31 35 49 50 51 50 49 48 45 45 48 45 42 42 40 40 41 42 36 26 21 23 16 11 16 15 19 23 22 21 21 19 18 19 18 17 16 18 17 18
23 30 32 39 37 44 46 52 51 50 51 49 50 51 53 51 53 50 47 46 42 40 39 31 22 26 22 18 15 17 16 19 21 21 21 20 20 20 19 20 20 20 21
20 27 24 25 26 41 45 45 42 51 53 54 55 57 57 51 49 49 49 43 43 39 37 33 30 31 27 25 22 21 19 20 21 22 22 23 23 23 23 23 23 23 24
15 26 28 31 31 35 26 29 44 44 50 51 54 55 54 54 57 52 45 38 48 41 34 33 33 31 33 32 29 28 26 25 24 24 24 24 23 24 26 25 25 25 26
14 19 26 26 25 42 45 35 28 49 46 52 51 52 49 50 51 50 53 46 46 43 34 35 34 33 35 35 35 34 31 32 30 29 26 26 25 26 26 27 28 28 26
13 14 19 27 29 28 26 26 24 43 51 46 46 43 46 47 48 47 44 43 46 51 48 46 43 40 39 36 34 37 35 34 33 33 29 30 27 28 26 27 29 27 27
13 12 12 15 26 26 31 26 23 30 47 44 41 43 40 48 51 46 50 44 42 43 49 46 43 41 36 37 35 36 37 38 34 31 28 27 28 27 26 27 26 25 26
18 13 11 12 13 16 25 33 31 30 30 40 37 28 40 50 50 53 46 50 49 54 55 51 49 44 40 37 35 31 33 28 29 31 31 31 32 31 30 30 28 27 26
24 18 13 10 9 12 20 28 27 44 42 39 33 35 30 36 40 43 46 48 47 52 52 52 49 48 44 42 40 35 34 31 32 34 33 32 34 32 33 32 29 28 28
29 25 18 12 8 9 12 20 30 27 29 38 33 41 35 32 33 46 41 56 51 48 47 51 53 52 48 47 45 43 39 38 38 37 38 36 35 35 33 32 30 29 29
Wind_Direction
215 188 189 196 194 188 187 187 186 183 180 177 174 170 160 148 138 137 148 152 152 156 153 156 154 156 152 147 145 142 137 131 129 129 127 129 128 127 120 117 114 109 104
216 194 195 201 188 191 192 192 192 187 184 183 179 174 169 155 149 139 151 153 157 157 162 161 162 161 154 150 151 148 143 140 137 134 130 129 126 123 125 124 120 116 108
223 200 197 195 190 194 196 196 197 193 189 187 184 180 178 167 162 150 157 159 161 162 167 170 166 165 165 158 160 157 152 150 144 138 139 135 132 131 131 132 130 124 116
229 206 202 193 193 197 200 199 197 195 194 191 186 185 183 176 171 164 162 164 166 168 176 176 174 177 171 171 170 164 161 157 152 151 146 142 141 138 140 144 144 138 127
230 220 220 211 204 195 202 208 202 202 197 194 190 190 186 177 174 175 173 175 175 174 173 174 179 181 185 184 181 175 175 168 164 161 156 154 153 154 156 160 158 154 149
232 230 231 209 208 200 199 206 212 200 203 195 193 193 189 183 176 181 187 188 188 185 182 183 186 190 193 193 192 191 189 183 177 171 169 168 168 171 169 177 180 179 176
235 235 225 205 219 204 207 204 209 201 199 197 196 191 187 191 182 194 202 204 203 198 193 194 197 200 205 203 206 205 203 198 190 185 184 183 183 185 187 196 199 203 207
241 232 231 222 223 225 217 211 203 204 200 198 193 189 179 194 201 201 215 217 214 206 204 202 206 210 214 217 214 215 212 210 201 199 198 197 197 201 205 212 217 223 230
231 236 246 215 226 225 224 221 214 201 196 194 204 195 167 188 203 206 217 226 227 223 217 216 216 217 218 219 220 217 215 215 210 207 208 211 211 215 222 225 231 236 242
251 240 227 241 219 219 216 218 202 191 194 191 200 202 205 202 183 201 220 226 230 231 227 224 224 224 224 225 220 221 219 216 214 213 213 220 221 226 232 235 239 242 246
243 243 235 223 224 220 216 213 204 207 201 199 200 198 203 207 204 200 205 227 230 234 232 227 227 227 227 225 222 221 219 221 214 215 218 225 228 230 237 241 245 248 254
240 232 243 241 212 205 204 195 200 220 218 206 208 214 213 213 212 220 224 243 240 240 238 230 229 227 226 225 225 222 222 221 217 219 222 225 231 234 241 247 251 256 259
242 237 229 232 205 210 215 215 211 213 220 216 213 219 224 227 230 239 246 247 251 255 238 233 231 230 229 229 226 223 222 224 223 223 225 229 233 235 240 243 248 256 261
250 247 247 236 240 216 220 223 222 218 219 219 221 225 229 235 236 238 250 234 251 259 259 243 230 230 231 231 229 224 226 226 226 227 228 230 233 235 242 248 249 255 261
242 257 244 245 234 228 220 222 219 223 225 226 229 229 231 237 241 243 247 250 246 251 257 264 232 228 229 231 228 224 228 227 229 232 232 233 235 238 243 250 254 257 260
234 241 253 248 253 244 231 222 220 223 226 227 228 231 230 232 240 241 244 251 248 244 247 251 242 237 235 232 233 229 230 231 231 235 236 238 240 244 247 253 254 259 263
217 227 256 255 245 241 240 227 221 220 224 227 224 228 230 236 242 245 249 253 242 241 240 245 249 248 254 232 232 230 230 232 235 236 239 242 246 249 251 255 258 260 265
228 225 234 250 264 251 236 237 226 218 225 227 228 230 237 241 242 246 251 251 235 235 237 246 247 248 249 252 247 238 231 233 238 242 245 248 250 253 256 255 257 261 263
239 224 220 219 241 245 256 232 240 239 239 236 235 236 240 240 239 241 247 238 227 223 237 239 243 248 246 249 251 248 242 239 241 245 245 249 253 255 255 257 260 264 264
267 238 234 235 237 252 254 253 246 246 242 244 242 239 240 242 239 242 239 241 227 230 231 235 242 245 247 248 253 253 250 249 248 249 251 254 258 259 259 257 259 265 264
286 257 243 242 242 236 248 273 279 259 245 241 243 244 246 242 239 242 247 245 227 221 224 234 237 238 247 248 252 256 254 251 251 253 256 254 257 263 264 262 261 258 262
302 283 253 241 235 236 248 248 272 236 248 233 235 237 242 249 247 245 242 246 252 226 218 230 237 238 251 257 258 255 254 251 252 256 260 263 261 266 266 268 262 262 261
333 304 285 260 246 251 245 251 246 242 253 238 241 242 246 247 249 254 249 247 247 225 222 237 243 242 254 255 258 257 256 251 255 260 262 263 264 263 265 270 263 260 259
5 344 312 289 265 259 241 238 233 246 244 240 244 254 261 248 246 247 245 238 240 235 239 246 244 247 252 256 256 259 261 262 257 260 260 259 264 266 269 272 269 261 260
23 19 360 332 306 269 265 252 239 240 247 237 253 249 261 243 238 247 242 248 245 242 243 244 243 249 254 251 253 256 250 249 252 257 257 257 261 266 269 269 268 262 265
28 34 30 19 344 316 296 262 251 247 241 248 250 239 249 241 266 238 246 245 245 250 246 243 247 249 252 250 246 248 250 249 252 254 255 254 260 265 265 260 264 266 262